Hourly Data Report for April 01, 2021

TORONTO CITY
ONTARIO
Current Station Operator: ECCC - MSC

43°40'00.000" N
79°24'00.000" W
112.50 m
6158355
71508
XTO

Download Data

Hourly Data (April 2021)
Hourly Data Report for April 1, 2021
TIME
LST
Temp Definition
°C
Dew Point Definition
°C
Rel Hum Definition
%
Precip. Amount Definition
mm

Wind Dir Definition
10's deg

Wind Spd Definition
km/h
Visibility Definition
km
Stn Press Definition
kPa
Hmdx Definition


Wind Chill Definition


Weather Definition


00:00 1.9 -5.8 56 0.0       100.52     LegendNANA
01:00 1.1 -8.0 50 0.0       100.59     LegendNANA
02:00 0.6 -8.8 49 0.0       100.55     LegendNANA
03:00 -0.1 -9.5 49 0.0       100.54     LegendNANA
04:00 -0.6 -9.4 51 0.0       100.50     LegendNANA
05:00 -0.9 -10.2 50 0.0       100.47     LegendNANA
06:00 -1.3 -10.0 52 0.0       100.47     LegendNANA
07:00 -1.2 -9.7 52 0.0       100.51     LegendNANA
08:00 -0.4 -9.3 51 0.0       100.54     LegendNANA
09:00 0.9 -7.7 53 0.0       100.55     LegendNANA
10:00 0.5 -6.6 59 0.0       100.64     LegendNANA
11:00 1.4 -6.4 56 0.0       100.67     LegendNANA
12:00 2.4 -6.3 52 0.0       100.66     LegendNANA
13:00 2.1 -10.0 40 0.0       100.70     LegendNANA
14:00 2.5 -9.8 40 0.0       100.73     LegendNANA
15:00 -0.5 -11.8 42 0.0       100.80     LegendNANA
16:00 -1.1 -12.0 44 0.0       100.85     LegendNANA
17:00 -0.9 -12.0 43 0.0       100.90     LegendNANA
18:00 -0.5 -12.5 40 0.0       100.93     LegendNANA
19:00 -0.5 -13.8 36 0.0       101.00     LegendNANA
20:00 -0.6 -15.3 32 0.0       101.08     LegendNANA
21:00 -0.7 -16.0 30 0.0       101.14     LegendNANA
22:00 -0.7 -16.4 29 0.0       101.15     LegendNANA
23:00 -0.9 -16.7 29 0.0       101.17     LegendNANA

Notes on Data Quality.

Legend

  • E = Estimated
  • M = Missing
  • NA = Not Available*
  • [empty] = Indicates an unobserved value
Date modified: